Weather History for Blacksburg, VA

Change the Weather History Date:

Thursday, November 1, 2012

  Actual Average Record
Temperature  
Mean Temperature 38 °F 48 °F  
Max Temperature 43 °F 61 °F 82 °F (2004)
Min Temperature 32 °F 35 °F 24 °F (1975)
Degree Days  
Heating Degree Days 27 17  
Month to date heating degree days 27 17  
Since 1 July heating degree days 541 544  
Cooling Degree Days 0 0  
Month to date cooling degree days 0 0  
Year to date cooling degree days 716 573  
Moisture  
Dew Point 35 °F    
Average Humidity 69    
Maximum Humidity 85    
Minimum Humidity 53    
Precipitation  
Precipitation T in 0.09 in 0.53 in (1972)
Month to date precipitation T 0.09  
Year to date precipitation 33.04 35.16  
Snow  
Snow 0.00 in - - ()
Month to date snowfall 0.0  
Since 1 July snowfall 0.6  
Since 1 September snowfall 0.6  
Snow Depth 0.00 in    
Sea Level Pressure  
Sea Level Pressure 29.79 in    
Wind  
Wind Speed 11 mph (WNW)    
Max Wind Speed 16 mph    
Max Gust Speed 29 mph    
Visibility 10 miles    
Events      
T = Trace of Precipitation, MM = Missing Value Source: NWS Daily Summary

Daily Weather History Graph

Daily Weather History Graph

Search for Another Location

Airport:

Trip Planner

Search our weather history database for the weather conditions in past years. The results will help you decide how hot, cold, wet, or windy it might be!

Date:

Astronomy

Nov. 01, 2012 Rise Set
Actual Time 7:46 AM EDT 6:23 PM EDT
Civil Twilight 7:19 AM EDT 6:50 PM EDT
Nautical Twilight 6:48 AM EDT 7:21 PM EDT
Astronomical Twilight 6:18 AM EDT 7:51 PM EDT
Moon 8:22 PM EDT (11/1) 10:14 AM EDT (11/1)
Length of Visible Light 11h 30m
Length of Day
10h 36m
Waning Gibbous, 93% of the Moon is Illuminated
Nov 1
Waning Gibbous
Nov 6
Last Quarter
Nov 13
New
Nov 20
First Quarter
Nov 28
Full

Hourly Weather History & Observations

Time (EDT) Temp. Windchill Dew Point Humidity Pressure Visibility Wind Dir Wind Speed Gust Speed Precip Events Conditions
12:15 AM 41.0 °F 33.9 °F 35.6 °F 81% 29.76 in 10.0 mi West 12.7 mph 18.4 mph N/A   Overcast
12:35 AM 41.0 °F 35.2 °F 35.6 °F 81% 29.76 in 10.0 mi West 9.2 mph 16.1 mph N/A   Overcast
12:55 AM 39.2 °F 31.6 °F 35.6 °F 87% 29.76 in 10.0 mi West 12.7 mph 18.4 mph N/A   Overcast
1:15 AM 39.2 °F 32.0 °F 35.6 °F 87% 29.76 in 10.0 mi West 11.5 mph 17.3 mph N/A   Overcast
1:35 AM 39.2 °F 32.0 °F 35.6 °F 87% 29.76 in 10.0 mi West 11.5 mph 18.4 mph N/A   Overcast
1:55 AM 39.2 °F 33.0 °F 35.6 °F 87% 29.76 in 10.0 mi WNW 9.2 mph 19.6 mph N/A   Overcast
2:15 AM 39.2 °F 32.5 °F 35.6 °F 87% 29.76 in 10.0 mi West 10.4 mph 17.3 mph N/A   Overcast
2:35 AM 39.2 °F 32.0 °F 35.6 °F 87% 29.76 in 10.0 mi West 11.5 mph 19.6 mph N/A   Overcast
2:55 AM 39.2 °F 31.2 °F 35.6 °F 87% 29.76 in 10.0 mi West 13.8 mph 25.3 mph N/A   Overcast
3:15 AM 39.2 °F 31.2 °F 35.6 °F 87% 29.76 in 10.0 mi West 13.8 mph 23.0 mph N/A   Overcast
3:35 AM 39.2 °F 31.2 °F 35.6 °F 87% 29.75 in 10.0 mi West 13.8 mph 24.2 mph N/A   Overcast
3:55 AM 39.2 °F 32.0 °F 35.6 °F 87% 29.75 in 10.0 mi WNW 11.5 mph 19.6 mph N/A   Overcast
4:15 AM 39.2 °F 31.2 °F 35.6 °F 87% 29.75 in 10.0 mi WNW 13.8 mph 23.0 mph N/A   Overcast
4:35 AM 39.2 °F 31.2 °F 35.6 °F 87% 29.75 in 10.0 mi WNW 13.8 mph 21.9 mph N/A   Overcast
4:55 AM 39.2 °F 30.5 °F 35.6 °F 87% 29.74 in 10.0 mi West 16.1 mph 25.3 mph N/A   Overcast
5:15 AM 39.2 °F 32.0 °F 35.6 °F 87% 29.75 in 10.0 mi WNW 11.5 mph 24.2 mph N/A   Overcast
5:35 AM 39.2 °F 33.0 °F 35.6 °F 87% 29.75 in 10.0 mi WNW 9.2 mph 23.0 mph N/A   Overcast
5:55 AM 39.2 °F 33.6 °F 35.6 °F 87% 29.76 in 10.0 mi WNW 8.1 mph 23.0 mph N/A   Overcast
6:15 AM 39.2 °F 33.6 °F 35.6 °F 87% 29.76 in 10.0 mi West 8.1 mph 19.6 mph N/A   Overcast
6:35 AM 39.2 °F 31.6 °F 35.6 °F 87% 29.76 in 10.0 mi West 12.7 mph 20.7 mph N/A   Overcast
6:55 AM 39.2 °F 33.0 °F 35.6 °F 87% 29.76 in 10.0 mi West 9.2 mph - N/A   Overcast
7:15 AM 39.2 °F 32.0 °F 35.6 °F 87% 29.77 in 10.0 mi West 11.5 mph 18.4 mph N/A   Overcast
7:35 AM 39.2 °F 33.6 °F 35.6 °F 87% 29.77 in 10.0 mi West 8.1 mph - N/A   Overcast
7:55 AM 39.2 °F 31.2 °F 35.6 °F 87% 29.78 in 10.0 mi West 13.8 mph 20.7 mph N/A   Overcast
8:35 AM 39.2 °F 30.8 °F 35.6 °F 87% 29.78 in 10.0 mi WNW 15.0 mph 24.2 mph N/A   Overcast
8:55 AM 39.2 °F 32.5 °F 35.6 °F 87% 29.78 in 10.0 mi WNW 10.4 mph 25.3 mph N/A   Overcast
9:35 AM 41.0 °F 33.9 °F 35.6 °F 81% 29.79 in 10.0 mi West 12.7 mph 23.0 mph N/A   Mostly Cloudy
9:55 AM 39.2 °F 31.6 °F 35.6 °F 87% 29.79 in 10.0 mi WNW 12.7 mph 21.9 mph N/A   Overcast
10:15 AM 41.0 °F 33.5 °F 35.6 °F 81% 29.80 in 10.0 mi West 13.8 mph 25.3 mph N/A   Overcast
10:35 AM 42.8 °F 35.8 °F 35.6 °F 76% 29.79 in 10.0 mi West 13.8 mph 24.2 mph N/A   Overcast
10:55 AM 42.8 °F 35.1 °F 35.6 °F 76% 29.80 in 10.0 mi West 16.1 mph 28.8 mph N/A   Overcast
11:15 AM 42.8 °F 35.8 °F 37.4 °F 81% 29.80 in 10.0 mi West 13.8 mph 29.9 mph N/A   Overcast
11:35 AM 42.8 °F 35.8 °F 37.4 °F 81% 29.81 in 10.0 mi WNW 13.8 mph 26.5 mph N/A   Overcast
12:15 PM 42.8 °F 35.4 °F 37.4 °F 81% 29.81 in 10.0 mi West 15.0 mph 24.2 mph N/A   Overcast
12:35 PM 42.8 °F 37.5 °F 35.6 °F 76% 29.81 in 10.0 mi WNW 9.2 mph 23.0 mph N/A   Overcast
12:55 PM 42.8 °F 37.0 °F 37.4 °F 81% 29.81 in 10.0 mi West 10.4 mph 23.0 mph N/A   Overcast
1:15 PM 42.8 °F 35.4 °F 37.4 °F 81% 29.80 in 10.0 mi West 15.0 mph 21.9 mph N/A   Overcast
1:35 PM 42.8 °F 34.8 °F 37.4 °F 81% 29.80 in 10.0 mi WNW 17.3 mph 26.5 mph N/A   Overcast
1:55 PM 42.8 °F 35.4 °F 37.4 °F 81% 29.79 in 10.0 mi West 15.0 mph 25.3 mph N/A   Overcast
2:15 PM 42.8 °F 36.2 °F 37.4 °F 81% 29.79 in 10.0 mi WNW 12.7 mph 23.0 mph N/A   Overcast
2:35 PM 42.8 °F 37.5 °F 37.4 °F 81% 29.79 in 10.0 mi WNW 9.2 mph 19.6 mph N/A   Overcast
3:15 PM 42.8 °F 37.5 °F 37.4 °F 81% 29.79 in 10.0 mi WNW 9.2 mph - N/A   Overcast
3:35 PM 42.8 °F 37.0 °F 37.4 °F 81% 29.78 in 10.0 mi West 10.4 mph 17.3 mph N/A   Overcast
3:55 PM 44.6 °F 39.7 °F 37.4 °F 76% 29.79 in 10.0 mi West 9.2 mph 17.3 mph N/A   Overcast
4:15 PM 44.6 °F 39.2 °F 37.4 °F 76% 29.78 in 10.0 mi WNW 10.4 mph 23.0 mph N/A   Overcast
4:35 PM 44.6 °F 38.1 °F 37.4 °F 76% 29.79 in 10.0 mi WNW 13.8 mph 25.3 mph N/A   Overcast
4:55 PM 44.6 °F 38.4 °F 35.6 °F 71% 29.79 in 10.0 mi WNW 12.7 mph 28.8 mph N/A   Mostly Cloudy
5:15 PM 44.6 °F 37.8 °F 35.6 °F 71% 29.79 in 10.0 mi West 15.0 mph 21.9 mph N/A   Clear
5:35 PM 44.6 °F 40.2 °F 35.6 °F 71% 29.80 in 10.0 mi WNW 8.1 mph 17.3 mph N/A   Clear
5:55 PM 44.6 °F 40.2 °F 35.6 °F 71% 29.80 in 10.0 mi WNW 8.1 mph 17.3 mph N/A   Clear
6:15 PM 44.6 °F 41.4 °F 35.6 °F 71% 29.81 in 10.0 mi West 5.8 mph - N/A   Clear
6:35 PM 42.8 °F 40.1 °F 35.6 °F 76% 29.82 in 10.0 mi WNW 4.6 mph - N/A   Clear
6:55 PM 42.8 °F 40.1 °F 35.6 °F 76% 29.82 in 10.0 mi WNW 4.6 mph - N/A   Clear
7:15 PM 42.8 °F 40.1 °F 35.6 °F 76% 29.82 in 10.0 mi WNW 4.6 mph - N/A   Clear
7:35 PM 39.2 °F - 33.8 °F 81% 29.82 in 10.0 mi Calm Calm - N/A   Clear
7:55 PM 39.2 °F - 33.8 °F 81% 29.83 in 10.0 mi Calm Calm - N/A   Clear
8:15 PM 35.6 °F - 33.8 °F 93% 29.82 in 10.0 mi Calm Calm - N/A   Clear
8:35 PM 35.6 °F - 33.8 °F 93% 29.83 in 10.0 mi Calm Calm - N/A   Clear
8:55 PM 39.2 °F 35.9 °F 33.8 °F 81% 29.83 in 10.0 mi West 4.6 mph - N/A   Clear
9:15 PM 41.0 °F 36.4 °F 32.0 °F 70% 29.83 in 10.0 mi West 6.9 mph - N/A   Clear
9:35 PM 42.8 °F 38.6 °F 32.0 °F 66% 29.83 in 10.0 mi West 6.9 mph - N/A   Clear
9:55 PM 42.8 °F 38.6 °F 30.2 °F 61% 29.84 in 10.0 mi West 6.9 mph - N/A   Clear
10:15 PM 42.8 °F 38.6 °F 30.2 °F 61% 29.84 in 10.0 mi West 6.9 mph - N/A   Clear
10:35 PM 42.8 °F 38.0 °F 30.2 °F 61% 29.84 in 10.0 mi West 8.1 mph - N/A   Clear
10:55 PM 42.8 °F 37.0 °F 28.4 °F 57% 29.85 in 10.0 mi WNW 10.4 mph - N/A   Clear
11:15 PM 44.6 °F 38.8 °F 28.4 °F 53% 29.85 in 10.0 mi WNW 11.5 mph 21.9 mph N/A   Clear
11:35 PM 42.8 °F 36.6 °F 28.4 °F 57% 29.86 in 10.0 mi WNW 11.5 mph 19.6 mph N/A   Clear
11:55 PM 42.8 °F 37.0 °F 26.6 °F 53% 29.85 in 10.0 mi WNW 10.4 mph 18.4 mph N/A   Clear